Вернуться в каталог

SL-8 R/B

АктивенPO
NORAD 10020·ROCKET BODY·🇷🇺 Russia

Запущен May 25, 1977 с Plesetsk Cosmodrome

Loading…

Ближайшие Пролёты (ближайшие 24 часа)

TLE

СвежийSource: Space-Track

Эпоха: Sep 14, 2026, 17:55 UTC

1 10020U 77039B   26257.74695104  .00000095  00000-0  78543-4 0  9992
2 10020  82.9493   9.7757 0030682 197.7050 162.3042 13.78412521478688

Отслеживайте SL-8 R/B в реальном времени с AllMySat

Download on the App Store